Tracking 31027 objects as of 19-Jul-2025
HD Live streaming from Space Station
objects crossing your sky now

CZ-6A DEB

Track CZ-6A DEB now!
10-day predictions


NORAD ID: 54279
Int'l Code: 2022-151W
Perigee: 696.0 km
Apogee: 894.9 km
Inclination: 98.6 °
Period: 100.6 minutes
Semi major axis: 7166 km
RCS: Unknown
Launch date: November 11, 2022
Source: People's Republic of China (PRC)
Launch site: Taiyaun Space Center, China (TSC)

Note: This is SATELLITE DEBRIS
Your satellite tracking list
Your tracking list is empty




NASA's NSSDC Master Catalog

Two Line Element Set (TLE):
1 54279U 22151W   25199.83713197  .00000475  00000-0  17877-3 0  9992
2 54279  98.6245 211.6324 0138828 332.1707  27.2096 14.31024767139425
Source of the keplerian elements: AFSPC